Year,Month,Day,Hour,Minute,Value (Times are PST for temperature in C)
2014,04,11,00,00,9.20
2014,04,11,00,01,9.20
2014,04,11,00,02,9.20
2014,04,11,00,03,9.20
2014,04,11,00,04,9.20
2014,04,11,00,05,9.20
2014,04,11,00,06,9.20
2014,04,11,00,07,9.20
2014,04,11,00,08,9.20
2014,04,11,00,09,9.20
2014,04,11,00,10,9.20
2014,04,11,00,11,9.20
2014,04,11,00,12,9.20
2014,04,11,00,13,9.20
2014,04,11,00,14,9.20
2014,04,11,00,15,9.20
2014,04,11,00,16,9.20
2014,04,11,00,17,9.20
2014,04,11,00,18,9.10
2014,04,11,00,19,9.10
2014,04,11,00,20,9.10
2014,04,11,00,21,9.10
2014,04,11,00,22,9.10
2014,04,11,00,23,9.10
2014,04,11,00,24,9.10
2014,04,11,00,25,9.10
2014,04,11,00,26,9.00
2014,04,11,00,27,9.00
2014,04,11,00,28,9.00
2014,04,11,00,29,9.00
2014,04,11,00,30,9.00
2014,04,11,00,31,8.90
2014,04,11,00,32,8.90
2014,04,11,00,33,8.90
2014,04,11,00,34,8.90
2014,04,11,00,35,8.90
2014,04,11,00,36,8.90
2014,04,11,00,37,8.90
2014,04,11,00,38,8.80
2014,04,11,00,39,8.80
2014,04,11,00,40,8.80
2014,04,11,00,41,8.80
2014,04,11,00,42,8.80
2014,04,11,00,43,8.80
2014,04,11,00,44,8.80
2014,04,11,00,45,8.80
2014,04,11,00,46,8.80
2014,04,11,00,47,8.80
2014,04,11,00,48,8.80
2014,04,11,00,49,8.80
2014,04,11,00,50,8.80
2014,04,11,00,51,8.80
2014,04,11,00,52,8.80
2014,04,11,00,53,8.80
2014,04,11,00,54,8.80
2014,04,11,00,55,8.80
2014,04,11,00,56,8.80
2014,04,11,00,57,8.80
2014,04,11,00,58,8.80
2014,04,11,00,59,8.80
2014,04,11,01,00,8.80
2014,04,11,01,01,8.80
2014,04,11,01,02,8.80
2014,04,11,01,03,8.70
2014,04,11,01,04,8.70
2014,04,11,01,05,8.70
2014,04,11,01,06,8.70
2014,04,11,01,07,8.70
2014,04,11,01,08,8.70
2014,04,11,01,09,8.70
2014,04,11,01,10,8.70
2014,04,11,01,11,8.70
2014,04,11,01,12,8.70
2014,04,11,01,13,8.70
2014,04,11,01,14,8.70
2014,04,11,01,15,8.70
2014,04,11,01,16,8.70
2014,04,11,01,17,8.70
2014,04,11,01,18,8.70
2014,04,11,01,19,8.70
2014,04,11,01,20,8.70
2014,04,11,01,21,8.70
2014,04,11,01,22,8.70
2014,04,11,01,23,8.70
2014,04,11,01,24,8.70
2014,04,11,01,25,8.70
2014,04,11,01,26,8.70
2014,04,11,01,27,8.70
2014,04,11,01,28,8.70
2014,04,11,01,29,8.70
2014,04,11,01,30,8.70
2014,04,11,01,31,8.70
2014,04,11,01,32,8.70
2014,04,11,01,33,8.70
2014,04,11,01,34,8.70
2014,04,11,01,35,8.70
2014,04,11,01,36,8.70
2014,04,11,01,37,8.70
2014,04,11,01,38,8.60
2014,04,11,01,39,8.60
2014,04,11,01,40,8.60
2014,04,11,01,41,8.60
2014,04,11,01,42,8.60
2014,04,11,01,43,8.60
2014,04,11,01,44,8.60
2014,04,11,01,45,8.50
2014,04,11,01,46,8.50
2014,04,11,01,47,8.40
2014,04,11,01,48,8.40
2014,04,11,01,49,8.40
2014,04,11,01,50,8.40
2014,04,11,01,51,8.30
2014,04,11,01,52,8.30
2014,04,11,01,53,8.30
2014,04,11,01,54,8.30
2014,04,11,01,55,8.30
2014,04,11,01,56,8.30
2014,04,11,01,57,8.20
2014,04,11,01,58,8.20
2014,04,11,01,59,8.10
2014,04,11,02,00,8.10
2014,04,11,02,01,8.10
2014,04,11,02,02,8.00
2014,04,11,02,03,8.00
2014,04,11,02,04,7.90
2014,04,11,02,05,7.90
2014,04,11,02,06,7.90
2014,04,11,02,07,7.80
2014,04,11,02,08,7.80
2014,04,11,02,09,7.80
2014,04,11,02,10,7.80
2014,04,11,02,11,7.80
2014,04,11,02,12,7.80
2014,04,11,02,13,7.80
2014,04,11,02,14,7.80
2014,04,11,02,15,7.80
2014,04,11,02,16,7.80
2014,04,11,02,17,7.70
2014,04,11,02,18,7.70
2014,04,11,02,19,7.70
2014,04,11,02,20,7.70
2014,04,11,02,21,7.60
2014,04,11,02,22,7.60
2014,04,11,02,23,7.60
2014,04,11,02,24,7.60
2014,04,11,02,25,7.50
2014,04,11,02,26,7.50
2014,04,11,02,27,7.40
2014,04,11,02,28,7.40
2014,04,11,02,29,7.40
2014,04,11,02,30,7.40
2014,04,11,02,31,7.30
2014,04,11,02,32,7.30
2014,04,11,02,33,7.30
2014,04,11,02,34,7.30
2014,04,11,02,35,7.30
2014,04,11,02,36,7.30
2014,04,11,02,37,7.30
2014,04,11,02,38,7.30
2014,04,11,02,39,7.30
2014,04,11,02,40,7.30
2014,04,11,02,41,7.30
2014,04,11,02,42,7.30
2014,04,11,02,43,7.30
2014,04,11,02,44,7.20
2014,04,11,02,45,7.20
2014,04,11,02,46,7.20
2014,04,11,02,47,7.20
2014,04,11,02,48,7.20
2014,04,11,02,49,7.10
2014,04,11,02,50,7.10
2014,04,11,02,51,7.10
2014,04,11,02,52,7.10
2014,04,11,02,53,7.10
2014,04,11,02,54,7.10
2014,04,11,02,55,7.00
2014,04,11,02,56,7.00
2014,04,11,02,57,7.00
2014,04,11,02,58,7.00
2014,04,11,02,59,7.00
2014,04,11,03,00,7.00
2014,04,11,03,01,7.00
2014,04,11,03,02,6.90
2014,04,11,03,03,6.90
2014,04,11,03,04,6.90
2014,04,11,03,05,6.90
2014,04,11,03,06,6.90
2014,04,11,03,07,6.80
2014,04,11,03,08,6.80
2014,04,11,03,09,6.80
2014,04,11,03,10,6.70
2014,04,11,03,11,6.70
2014,04,11,03,12,6.70
2014,04,11,03,13,6.60
2014,04,11,03,14,6.60
2014,04,11,03,15,6.50
2014,04,11,03,16,6.50
2014,04,11,03,17,6.40
2014,04,11,03,18,6.40
2014,04,11,03,19,6.40
2014,04,11,03,20,6.40
2014,04,11,03,21,6.40
2014,04,11,03,22,6.30
2014,04,11,03,23,6.30
2014,04,11,03,24,6.20
2014,04,11,03,25,6.10
2014,04,11,03,26,6.10
2014,04,11,03,27,6.00
2014,04,11,03,28,6.00
2014,04,11,03,29,5.90
2014,04,11,03,30,5.90
2014,04,11,03,31,5.90
2014,04,11,03,32,5.80
2014,04,11,03,33,5.80
2014,04,11,03,34,5.80
2014,04,11,03,35,5.80
2014,04,11,03,36,5.80
2014,04,11,03,37,5.70
2014,04,11,03,38,5.70
2014,04,11,03,39,5.70
2014,04,11,03,40,5.70
2014,04,11,03,41,5.70
2014,04,11,03,42,5.60
2014,04,11,03,43,5.60
2014,04,11,03,44,5.60
2014,04,11,03,45,5.60
2014,04,11,03,46,5.50
2014,04,11,03,47,5.50
2014,04,11,03,48,5.40
2014,04,11,03,49,5.40
2014,04,11,03,50,5.40
2014,04,11,03,51,5.40
2014,04,11,03,52,5.30
2014,04,11,03,53,5.30
2014,04,11,03,54,5.30
2014,04,11,03,55,5.30
2014,04,11,03,56,5.20
2014,04,11,03,57,5.20
2014,04,11,03,58,5.20
2014,04,11,03,59,5.20
2014,04,11,04,00,5.20
2014,04,11,04,01,5.10
2014,04,11,04,02,5.10
2014,04,11,04,03,5.10
2014,04,11,04,04,5.00
2014,04,11,04,05,5.00
2014,04,11,04,06,5.00
2014,04,11,04,07,4.90
2014,04,11,04,08,4.90
2014,04,11,04,09,4.90
2014,04,11,04,10,4.90
2014,04,11,04,11,4.90
2014,04,11,04,12,4.80
2014,04,11,04,13,4.80
2014,04,11,04,14,4.80
2014,04,11,04,15,4.80
2014,04,11,04,16,4.80
2014,04,11,04,17,4.80
2014,04,11,04,18,4.80
2014,04,11,04,19,4.80
2014,04,11,04,20,4.80
2014,04,11,04,21,4.70
2014,04,11,04,22,4.70
2014,04,11,04,23,4.70
2014,04,11,04,24,4.70
2014,04,11,04,25,4.70
2014,04,11,04,26,4.70
2014,04,11,04,27,4.70
2014,04,11,04,28,4.70
2014,04,11,04,29,4.70
2014,04,11,04,30,4.70
2014,04,11,04,31,4.70
2014,04,11,04,32,4.70
2014,04,11,04,33,4.70
2014,04,11,04,34,4.70
2014,04,11,04,35,4.70
2014,04,11,04,36,4.70
2014,04,11,04,37,4.70
2014,04,11,04,38,4.70
2014,04,11,04,39,4.70
2014,04,11,04,40,4.70
2014,04,11,04,41,4.70
2014,04,11,04,42,4.70
2014,04,11,04,43,4.70
2014,04,11,04,44,4.70
2014,04,11,04,45,4.70
2014,04,11,04,46,4.70
2014,04,11,04,47,4.70
2014,04,11,04,48,4.70
2014,04,11,04,49,4.70
2014,04,11,04,50,4.70
2014,04,11,04,51,4.70
2014,04,11,04,52,4.70
2014,04,11,04,53,4.70
2014,04,11,04,54,4.70
2014,04,11,04,55,4.80
2014,04,11,04,56,4.80
2014,04,11,04,57,4.80
2014,04,11,04,58,4.80
2014,04,11,04,59,4.80
2014,04,11,05,00,4.80
2014,04,11,05,01,4.80
2014,04,11,05,02,4.80
2014,04,11,05,03,4.80
2014,04,11,05,04,4.80
2014,04,11,05,05,4.80
2014,04,11,05,06,4.80
2014,04,11,05,07,4.80
2014,04,11,05,08,4.80
2014,04,11,05,09,4.90
2014,04,11,05,10,4.90
2014,04,11,05,11,4.90
2014,04,11,05,12,4.90
2014,04,11,05,13,4.90
2014,04,11,05,14,4.90
2014,04,11,05,15,5.00
2014,04,11,05,16,5.00
2014,04,11,05,17,5.00
2014,04,11,05,18,5.00
2014,04,11,05,19,5.00
2014,04,11,05,20,5.00
2014,04,11,05,21,5.00
2014,04,11,05,22,5.00
2014,04,11,05,23,5.10
2014,04,11,05,24,5.10
2014,04,11,05,25,5.10
2014,04,11,05,26,5.10
2014,04,11,05,27,5.10
2014,04,11,05,28,5.10
2014,04,11,05,29,5.10
2014,04,11,05,30,5.10
2014,04,11,05,31,5.10
2014,04,11,05,32,5.10
2014,04,11,05,33,5.10
2014,04,11,05,34,5.10
2014,04,11,05,35,5.10
2014,04,11,05,36,5.10
2014,04,11,05,37,5.10
2014,04,11,05,38,5.10
2014,04,11,05,39,5.20
2014,04,11,05,40,5.20
2014,04,11,05,41,5.20
2014,04,11,05,42,5.20
2014,04,11,05,43,5.20
2014,04,11,05,44,5.30
2014,04,11,05,45,5.30
2014,04,11,05,46,5.30
2014,04,11,05,47,5.30
2014,04,11,05,48,5.30
2014,04,11,05,49,5.40
2014,04,11,05,50,5.40
2014,04,11,05,51,5.40
2014,04,11,05,52,5.50
2014,04,11,05,53,5.50
2014,04,11,05,54,5.50
2014,04,11,05,55,5.50
2014,04,11,05,56,5.50
2014,04,11,05,57,5.60
2014,04,11,05,58,5.60
2014,04,11,05,59,5.60
2014,04,11,06,00,5.60
2014,04,11,06,01,5.60
2014,04,11,06,02,5.60
2014,04,11,06,03,5.60
2014,04,11,06,04,5.60
2014,04,11,06,05,5.60
2014,04,11,06,06,5.60
2014,04,11,06,07,5.60
2014,04,11,06,08,5.60
2014,04,11,06,09,5.60
2014,04,11,06,10,5.60
2014,04,11,06,11,5.60
2014,04,11,06,12,5.70
2014,04,11,06,13,5.60
2014,04,11,06,14,5.60
2014,04,11,06,15,5.60
2014,04,11,06,16,5.60
2014,04,11,06,17,5.60
2014,04,11,06,18,5.60
2014,04,11,06,19,5.60
2014,04,11,06,20,5.60
2014,04,11,06,21,5.70
2014,04,11,06,22,5.70
2014,04,11,06,23,5.70
2014,04,11,06,24,5.70
2014,04,11,06,25,5.70
2014,04,11,06,26,5.70
2014,04,11,06,27,5.70
2014,04,11,06,28,5.80
2014,04,11,06,29,5.80
2014,04,11,06,30,5.80
2014,04,11,06,31,5.80
2014,04,11,06,32,5.80
2014,04,11,06,33,5.80
2014,04,11,06,34,5.90
2014,04,11,06,35,5.90
2014,04,11,06,36,5.90
2014,04,11,06,37,6.00
2014,04,11,06,38,6.00
2014,04,11,06,39,6.00
2014,04,11,06,40,6.10
2014,04,11,06,41,6.10
2014,04,11,06,42,6.10
2014,04,11,06,43,6.10
2014,04,11,06,44,6.20
2014,04,11,06,45,6.20
2014,04,11,06,46,6.20
2014,04,11,06,47,6.20
2014,04,11,06,48,6.20
2014,04,11,06,49,6.20
2014,04,11,06,50,6.20
2014,04,11,06,51,6.20
2014,04,11,06,52,6.20
2014,04,11,06,53,6.20
2014,04,11,06,54,6.20
2014,04,11,06,55,6.20
2014,04,11,06,56,6.20
2014,04,11,06,57,6.20
2014,04,11,06,58,6.30
2014,04,11,06,59,6.30
2014,04,11,07,00,6.40
2014,04,11,07,01,6.50
2014,04,11,07,02,6.60
2014,04,11,07,03,6.70
2014,04,11,07,04,6.80
2014,04,11,07,05,6.90
2014,04,11,07,06,7.00
2014,04,11,07,07,7.10
2014,04,11,07,08,7.20
2014,04,11,07,09,7.40
2014,04,11,07,10,7.50
2014,04,11,07,11,7.70
2014,04,11,07,12,7.70
2014,04,11,07,13,7.80
2014,04,11,07,14,7.90
2014,04,11,07,15,7.90
2014,04,11,07,16,8.00
2014,04,11,07,17,8.00
2014,04,11,07,18,8.10
2014,04,11,07,19,8.10
2014,04,11,07,20,8.10
2014,04,11,07,21,8.20
2014,04,11,07,22,8.20
2014,04,11,07,23,8.20
2014,04,11,07,24,8.20
2014,04,11,07,25,8.20
2014,04,11,07,26,8.20
2014,04,11,07,27,8.30
2014,04,11,07,28,8.30
2014,04,11,07,29,8.30
2014,04,11,07,30,8.30
2014,04,11,07,31,8.30
2014,04,11,07,32,8.30
2014,04,11,07,33,8.30
2014,04,11,07,34,8.30
2014,04,11,07,35,8.30
2014,04,11,07,36,8.40
2014,04,11,07,37,8.40
2014,04,11,07,38,8.40
2014,04,11,07,39,8.40
2014,04,11,07,40,8.40
2014,04,11,07,41,8.50
2014,04,11,07,42,8.50
2014,04,11,07,43,8.60
2014,04,11,07,44,8.60
2014,04,11,07,45,8.60
2014,04,11,07,46,8.70
2014,04,11,07,47,8.70
2014,04,11,07,48,8.80
2014,04,11,07,49,8.80
2014,04,11,07,50,8.80
2014,04,11,07,51,8.80
2014,04,11,07,52,8.80
2014,04,11,07,53,8.80
2014,04,11,07,54,8.80
2014,04,11,07,55,8.80
2014,04,11,07,56,8.80
2014,04,11,07,57,8.80
2014,04,11,07,58,8.80
2014,04,11,07,59,8.90
2014,04,11,08,00,8.90
2014,04,11,08,01,8.90
2014,04,11,08,02,8.90
2014,04,11,08,03,8.90
2014,04,11,08,04,8.90
2014,04,11,08,05,8.90
2014,04,11,08,06,8.90
2014,04,11,08,07,9.00
2014,04,11,08,08,9.00
2014,04,11,08,09,9.00
2014,04,11,08,10,9.10
2014,04,11,08,11,9.10
2014,04,11,08,12,9.10
2014,04,11,08,13,9.20
2014,04,11,08,14,9.20
2014,04,11,08,15,9.30
2014,04,11,08,16,9.30
2014,04,11,08,17,9.30
2014,04,11,08,18,9.30
2014,04,11,08,19,9.30
2014,04,11,08,20,9.40
2014,04,11,08,21,9.40
2014,04,11,08,22,9.40
2014,04,11,08,23,9.50
2014,04,11,08,24,9.50
2014,04,11,08,25,9.60
2014,04,11,08,26,9.60
2014,04,11,08,27,9.70
2014,04,11,08,28,9.70
2014,04,11,08,29,9.80
2014,04,11,08,30,9.90
2014,04,11,08,31,9.90
2014,04,11,08,32,10.00
2014,04,11,08,33,10.00
2014,04,11,08,34,10.10
2014,04,11,08,35,10.10
2014,04,11,08,36,10.00
2014,04,11,08,37,10.00
2014,04,11,08,38,10.00
2014,04,11,08,39,10.00
2014,04,11,08,40,10.00
2014,04,11,08,41,10.00
2014,04,11,08,42,9.90
2014,04,11,08,43,9.90
2014,04,11,08,44,9.90
2014,04,11,08,45,10.00
2014,04,11,08,46,10.10
2014,04,11,08,47,10.10
2014,04,11,08,48,10.10
2014,04,11,08,49,10.10
2014,04,11,08,50,10.10
2014,04,11,08,51,10.20
2014,04,11,08,52,10.30
2014,04,11,08,53,10.30
2014,04,11,08,54,10.40
2014,04,11,08,55,10.40
2014,04,11,08,56,10.40
2014,04,11,08,57,10.40
2014,04,11,08,58,10.30
2014,04,11,08,59,10.40
2014,04,11,09,00,10.40
2014,04,11,09,01,10.50
2014,04,11,09,02,10.50
2014,04,11,09,03,10.50
2014,04,11,09,04,10.50
2014,04,11,09,05,10.50
2014,04,11,09,06,10.50
2014,04,11,09,07,10.50
2014,04,11,09,08,10.60
2014,04,11,09,09,10.60
2014,04,11,09,10,10.70
2014,04,11,09,11,10.70
2014,04,11,09,12,10.70
2014,04,11,09,13,10.70
2014,04,11,09,14,10.80
2014,04,11,09,15,10.80
2014,04,11,09,16,10.70
2014,04,11,09,17,10.70
2014,04,11,09,18,10.60
2014,04,11,09,19,10.60
2014,04,11,09,20,10.60
2014,04,11,09,21,10.60
2014,04,11,09,22,10.50
2014,04,11,09,23,10.50
2014,04,11,09,24,10.60
2014,04,11,09,25,10.60
2014,04,11,09,26,10.60
2014,04,11,09,27,10.60
2014,04,11,09,28,10.60
2014,04,11,09,29,10.70
2014,04,11,09,30,10.70
2014,04,11,09,31,10.80
2014,04,11,09,32,10.80
2014,04,11,09,33,10.80
2014,04,11,09,34,10.80
2014,04,11,09,35,10.80
2014,04,11,09,36,10.90
2014,04,11,09,37,10.90
2014,04,11,09,38,11.00
2014,04,11,09,39,11.00
2014,04,11,09,40,11.10
2014,04,11,09,41,11.20
2014,04,11,09,42,11.20
2014,04,11,09,43,11.20
2014,04,11,09,44,11.20
2014,04,11,09,45,11.20
2014,04,11,09,46,11.30
2014,04,11,09,47,11.30
2014,04,11,09,48,11.30
2014,04,11,09,49,11.40
2014,04,11,09,50,11.40
2014,04,11,09,51,11.40
2014,04,11,09,52,11.50
2014,04,11,09,53,11.60
2014,04,11,09,54,11.70
2014,04,11,09,55,11.70
2014,04,11,09,56,11.80
2014,04,11,09,57,11.90
2014,04,11,09,58,12.00
2014,04,11,09,59,12.10
2014,04,11,10,00,12.20
2014,04,11,10,01,12.30
2014,04,11,10,02,12.40
2014,04,11,10,03,12.40
2014,04,11,10,04,12.40
2014,04,11,10,05,12.50
2014,04,11,10,06,12.60
2014,04,11,10,07,12.60
2014,04,11,10,08,12.70
2014,04,11,10,09,12.70
2014,04,11,10,10,12.70
2014,04,11,10,11,12.70
2014,04,11,10,12,12.60
2014,04,11,10,13,12.60
2014,04,11,10,14,12.70
2014,04,11,10,15,12.80
2014,04,11,10,16,12.80
2014,04,11,10,17,12.80
2014,04,11,10,18,12.80
2014,04,11,10,19,12.90
2014,04,11,10,20,12.90
2014,04,11,10,21,12.90
2014,04,11,10,22,12.90
2014,04,11,10,23,12.90
2014,04,11,10,24,12.90
2014,04,11,10,25,12.90
2014,04,11,10,26,13.00
2014,04,11,10,27,13.00
2014,04,11,10,28,13.10
2014,04,11,10,29,13.20
2014,04,11,10,30,13.20
2014,04,11,10,31,13.30
2014,04,11,10,32,13.30
2014,04,11,10,33,13.30
2014,04,11,10,34,13.40
2014,04,11,10,35,13.40
2014,04,11,10,36,13.40
2014,04,11,10,37,13.30
2014,04,11,10,38,13.40
2014,04,11,10,39,13.40
2014,04,11,10,40,13.40
2014,04,11,10,41,13.50
2014,04,11,10,42,13.50
2014,04,11,10,43,13.70
2014,04,11,10,44,13.80
2014,04,11,10,45,13.90
2014,04,11,10,46,14.00
2014,04,11,10,47,14.00
2014,04,11,10,48,14.10
2014,04,11,10,49,14.10
2014,04,11,10,50,14.20
2014,04,11,10,51,14.30
2014,04,11,10,52,14.40
2014,04,11,10,53,14.40
2014,04,11,10,54,14.40
2014,04,11,10,55,14.50
2014,04,11,10,56,14.50
2014,04,11,10,57,14.60
2014,04,11,10,58,14.70
2014,04,11,10,59,14.70
2014,04,11,11,00,14.70
2014,04,11,11,01,14.70
2014,04,11,11,02,14.80
2014,04,11,11,03,14.80
2014,04,11,11,04,14.80
2014,04,11,11,05,14.90
2014,04,11,11,06,14.90
2014,04,11,11,07,14.80
2014,04,11,11,08,14.80
2014,04,11,11,09,14.70
2014,04,11,11,10,14.70
2014,04,11,11,11,14.70
2014,04,11,11,12,14.70
2014,04,11,11,13,14.80
2014,04,11,11,14,14.80
2014,04,11,11,15,14.80
2014,04,11,11,16,14.80
2014,04,11,11,17,14.80
2014,04,11,11,18,14.80
2014,04,11,11,19,14.80
2014,04,11,11,20,14.90
2014,04,11,11,21,14.90
2014,04,11,11,22,14.90
2014,04,11,11,23,14.80
2014,04,11,11,24,14.80
2014,04,11,11,25,14.80
2014,04,11,11,26,14.80
2014,04,11,11,27,14.80
2014,04,11,11,28,14.80
2014,04,11,11,29,14.80
2014,04,11,11,30,14.80
2014,04,11,11,31,14.90
2014,04,11,11,32,14.90
2014,04,11,11,33,14.90
2014,04,11,11,34,15.00
2014,04,11,11,35,15.10
2014,04,11,11,36,15.20
2014,04,11,11,37,15.30
2014,04,11,11,38,15.30
2014,04,11,11,39,15.30
2014,04,11,11,40,15.20
2014,04,11,11,41,15.20
2014,04,11,11,42,15.10
2014,04,11,11,43,15.10
2014,04,11,11,44,15.00
2014,04,11,11,45,15.10
2014,04,11,11,46,15.10
2014,04,11,11,47,15.10
2014,04,11,11,48,15.20
2014,04,11,11,49,15.30
2014,04,11,11,50,15.30
2014,04,11,11,51,15.30
2014,04,11,11,52,15.30
2014,04,11,11,53,15.30
2014,04,11,11,54,15.20
2014,04,11,11,55,15.20
2014,04,11,11,56,15.20
2014,04,11,11,57,15.20
2014,04,11,11,58,15.30
2014,04,11,11,59,15.30
2014,04,11,12,00,15.30
2014,04,11,12,01,15.40
2014,04,11,12,02,15.40
2014,04,11,12,03,15.50
2014,04,11,12,04,15.50
2014,04,11,12,05,15.50
2014,04,11,12,06,15.50
2014,04,11,12,07,15.50
2014,04,11,12,08,15.40
2014,04,11,12,09,15.40
2014,04,11,12,10,15.40
2014,04,11,12,11,15.30
2014,04,11,12,12,15.30
2014,04,11,12,13,15.30
2014,04,11,12,14,15.30
2014,04,11,12,15,15.30
2014,04,11,12,16,15.20
2014,04,11,12,17,15.20
2014,04,11,12,18,15.20
2014,04,11,12,19,15.30
2014,04,11,12,20,15.30
2014,04,11,12,21,15.30
2014,04,11,12,22,15.20
2014,04,11,12,23,15.20
2014,04,11,12,24,15.20
2014,04,11,12,25,15.10
2014,04,11,12,26,15.00
2014,04,11,12,27,15.00
2014,04,11,12,28,15.00
2014,04,11,12,29,14.90
2014,04,11,12,30,14.90
2014,04,11,12,31,15.00
2014,04,11,12,32,15.00
2014,04,11,12,33,15.10
2014,04,11,12,34,15.00
2014,04,11,12,35,15.00
2014,04,11,12,36,15.00
2014,04,11,12,37,14.90
2014,04,11,12,38,14.90
2014,04,11,12,39,14.90
2014,04,11,12,40,14.80
2014,04,11,12,41,14.70
2014,04,11,12,42,14.70
2014,04,11,12,43,14.70
2014,04,11,12,44,14.70
2014,04,11,12,45,14.70
2014,04,11,12,46,14.70
2014,04,11,12,47,14.70
2014,04,11,12,48,14.70
2014,04,11,12,49,14.70
2014,04,11,12,50,14.70
2014,04,11,12,51,14.70
2014,04,11,12,52,14.80
2014,04,11,12,53,14.80
2014,04,11,12,54,14.80
2014,04,11,12,55,14.80
2014,04,11,12,56,14.80
2014,04,11,12,57,14.80
2014,04,11,12,58,14.80
2014,04,11,12,59,14.80
2014,04,11,13,00,14.80
2014,04,11,13,01,14.80
2014,04,11,13,02,14.80
2014,04,11,13,03,14.80
2014,04,11,13,04,14.80
2014,04,11,13,05,14.80
2014,04,11,13,06,14.80
2014,04,11,13,07,14.80
2014,04,11,13,08,14.90
2014,04,11,13,09,15.00
2014,04,11,13,10,15.00
2014,04,11,13,11,15.10
2014,04,11,13,12,15.10
2014,04,11,13,13,15.20
2014,04,11,13,14,15.20
2014,04,11,13,15,15.20
2014,04,11,13,16,15.10
2014,04,11,13,17,15.10
2014,04,11,13,18,15.10
2014,04,11,13,19,15.10
2014,04,11,13,20,15.10
2014,04,11,13,21,15.00
2014,04,11,13,22,14.90
2014,04,11,13,23,15.00
2014,04,11,13,24,15.10
2014,04,11,13,25,15.20
2014,04,11,13,26,15.20
2014,04,11,13,27,15.20
2014,04,11,13,28,15.30
2014,04,11,13,29,15.40
2014,04,11,13,30,15.40
2014,04,11,13,31,15.40
2014,04,11,13,32,15.40
2014,04,11,13,33,15.50
2014,04,11,13,34,15.50
2014,04,11,13,35,15.50
2014,04,11,13,36,15.40
2014,04,11,13,37,15.40
2014,04,11,13,38,15.30
2014,04,11,13,39,15.20
2014,04,11,13,40,15.10
2014,04,11,13,41,15.10
2014,04,11,13,42,15.10
2014,04,11,13,43,15.10
2014,04,11,13,44,15.10
2014,04,11,13,45,15.10
2014,04,11,13,46,15.00
2014,04,11,13,47,15.00
2014,04,11,13,48,15.00
2014,04,11,13,49,15.10
2014,04,11,13,50,15.20
2014,04,11,13,51,15.30
2014,04,11,13,52,15.40
2014,04,11,13,53,15.40
2014,04,11,13,54,15.30
2014,04,11,13,55,15.30
2014,04,11,13,56,15.20
2014,04,11,13,57,15.20
2014,04,11,13,58,15.10
2014,04,11,13,59,15.10
2014,04,11,14,00,15.10
2014,04,11,14,01,15.10
2014,04,11,14,02,15.00
2014,04,11,14,03,15.00
2014,04,11,14,04,15.00
2014,04,11,14,05,14.90
2014,04,11,14,06,14.90
2014,04,11,14,07,14.90
2014,04,11,14,08,14.90
2014,04,11,14,09,14.80
2014,04,11,14,10,14.80
2014,04,11,14,11,14.80
2014,04,11,14,12,14.70
2014,04,11,14,13,14.70
2014,04,11,14,14,14.70
2014,04,11,14,15,14.80
2014,04,11,14,16,14.80
2014,04,11,14,17,14.80
2014,04,11,14,18,14.70
2014,04,11,14,19,14.60
2014,04,11,14,20,14.60
2014,04,11,14,21,14.60
2014,04,11,14,22,14.60
2014,04,11,14,23,14.70
2014,04,11,14,24,14.70
2014,04,11,14,25,14.70
2014,04,11,14,26,14.80
2014,04,11,14,27,14.80
2014,04,11,14,28,14.80
2014,04,11,14,29,14.80
2014,04,11,14,30,14.80
2014,04,11,14,31,14.90
2014,04,11,14,32,14.90
2014,04,11,14,33,14.90
2014,04,11,14,34,14.80
2014,04,11,14,35,14.80
2014,04,11,14,36,14.80
2014,04,11,14,37,14.80
2014,04,11,14,38,14.80
2014,04,11,14,39,14.80
2014,04,11,14,40,14.80
2014,04,11,14,41,14.90
2014,04,11,14,42,14.90
2014,04,11,14,43,15.00
2014,04,11,14,44,15.10
2014,04,11,14,45,15.20
2014,04,11,14,46,15.20
2014,04,11,14,47,15.20
2014,04,11,14,48,15.30
2014,04,11,14,49,15.30
2014,04,11,14,50,15.30
2014,04,11,14,51,15.30
2014,04,11,14,52,15.30
2014,04,11,14,53,15.40
2014,04,11,14,54,15.40
2014,04,11,14,55,15.40
2014,04,11,14,56,15.50
2014,04,11,14,57,15.50
2014,04,11,14,58,15.50
2014,04,11,14,59,15.50
2014,04,11,15,00,15.60
2014,04,11,15,01,15.60
2014,04,11,15,02,15.60
2014,04,11,15,03,15.70
2014,04,11,15,04,15.70
2014,04,11,15,05,15.70
2014,04,11,15,06,15.70
2014,04,11,15,07,15.60
2014,04,11,15,08,15.60
2014,04,11,15,09,15.70
2014,04,11,15,10,15.70
2014,04,11,15,11,15.70
2014,04,11,15,12,15.70
2014,04,11,15,13,15.70
2014,04,11,15,14,15.70
2014,04,11,15,15,15.70
2014,04,11,15,16,15.70
2014,04,11,15,17,15.50
2014,04,11,15,18,15.40
2014,04,11,15,19,15.30
2014,04,11,15,20,15.20
2014,04,11,15,21,15.20
2014,04,11,15,22,15.20
2014,04,11,15,23,15.30
2014,04,11,15,24,15.40
2014,04,11,15,25,15.40
2014,04,11,15,26,15.50
2014,04,11,15,27,15.50
2014,04,11,15,28,15.50
2014,04,11,15,29,15.60
2014,04,11,15,30,15.60
2014,04,11,15,31,15.70
2014,04,11,15,32,15.80
2014,04,11,15,33,15.90
2014,04,11,15,34,15.90
2014,04,11,15,35,16.00
2014,04,11,15,36,16.00
2014,04,11,15,37,16.00
2014,04,11,15,38,16.00
2014,04,11,15,39,15.90
2014,04,11,15,40,15.90
2014,04,11,15,41,15.90
2014,04,11,15,42,15.90
2014,04,11,15,43,15.90
2014,04,11,15,44,15.90
2014,04,11,15,45,15.90
2014,04,11,15,46,15.90
2014,04,11,15,47,15.80
2014,04,11,15,48,15.80
2014,04,11,15,49,15.80
2014,04,11,15,50,15.80
2014,04,11,15,51,15.80
2014,04,11,15,52,15.80
2014,04,11,15,53,15.80
2014,04,11,15,54,15.80
2014,04,11,15,55,15.80
2014,04,11,15,56,15.80
2014,04,11,15,57,15.80
2014,04,11,15,58,15.70
2014,04,11,15,59,15.70
2014,04,11,16,00,15.70
2014,04,11,16,01,15.60
2014,04,11,16,02,15.60
2014,04,11,16,03,15.60
2014,04,11,16,04,15.60
2014,04,11,16,05,15.60
2014,04,11,16,06,15.60
2014,04,11,16,07,15.60
2014,04,11,16,08,15.60
2014,04,11,16,09,15.60
2014,04,11,16,10,15.60
2014,04,11,16,11,15.60
2014,04,11,16,12,15.60
2014,04,11,16,13,15.70
2014,04,11,16,14,15.70
2014,04,11,16,15,15.60
2014,04,11,16,16,15.60
2014,04,11,16,17,15.60
2014,04,11,16,18,15.60
2014,04,11,16,19,15.50
2014,04,11,16,20,15.40
2014,04,11,16,21,15.30
2014,04,11,16,22,15.20
2014,04,11,16,23,15.20
2014,04,11,16,24,15.20
2014,04,11,16,25,15.20
2014,04,11,16,26,15.20
2014,04,11,16,27,15.20
2014,04,11,16,28,15.30
2014,04,11,16,29,15.40
2014,04,11,16,30,15.40
2014,04,11,16,31,15.40
2014,04,11,16,32,15.40
2014,04,11,16,33,15.30
2014,04,11,16,34,15.30
2014,04,11,16,35,15.30
2014,04,11,16,36,15.40
2014,04,11,16,37,15.40
2014,04,11,16,38,15.40
2014,04,11,16,39,15.40
2014,04,11,16,40,15.40
2014,04,11,16,41,15.40
2014,04,11,16,42,15.30
2014,04,11,16,43,15.30
2014,04,11,16,44,15.30
2014,04,11,16,45,15.30
2014,04,11,16,46,15.20
2014,04,11,16,47,15.20
2014,04,11,16,48,15.20
2014,04,11,16,49,15.20
2014,04,11,16,50,15.20
2014,04,11,16,51,15.20
2014,04,11,16,52,15.20
2014,04,11,16,53,15.20
2014,04,11,16,54,15.20
2014,04,11,16,55,15.20
2014,04,11,16,56,15.20
2014,04,11,16,57,15.20
2014,04,11,16,58,15.10
2014,04,11,16,59,15.20
2014,04,11,17,00,15.20
2014,04,11,17,01,15.10
2014,04,11,17,02,15.10
2014,04,11,17,03,15.10
2014,04,11,17,04,15.10
2014,04,11,17,05,15.00
2014,04,11,17,06,14.90
2014,04,11,17,07,14.90
2014,04,11,17,08,14.90
2014,04,11,17,09,14.90
2014,04,11,17,10,15.00
2014,04,11,17,11,15.00
2014,04,11,17,12,15.10
2014,04,11,17,13,15.00
2014,04,11,17,14,15.00
2014,04,11,17,15,14.90
2014,04,11,17,16,14.90
2014,04,11,17,17,14.80
2014,04,11,17,18,14.70
2014,04,11,17,19,14.60
2014,04,11,17,20,14.60
2014,04,11,17,21,14.50
2014,04,11,17,22,14.50
2014,04,11,17,23,14.40
2014,04,11,17,24,14.40
2014,04,11,17,25,14.40
2014,04,11,17,26,14.40
2014,04,11,17,27,14.50
2014,04,11,17,28,14.50
2014,04,11,17,29,14.50
2014,04,11,17,30,14.50
2014,04,11,17,31,14.40
2014,04,11,17,32,14.30
2014,04,11,17,33,14.30
2014,04,11,17,34,14.20
2014,04,11,17,35,14.20
2014,04,11,17,36,14.30
2014,04,11,17,37,14.20
2014,04,11,17,38,14.20
2014,04,11,17,39,14.20
2014,04,11,17,40,14.20
2014,04,11,17,41,14.20